This is the latest recevied weather packets stored in our database for station/object KO4ZGL-13. If no packets are shown the sender has not sent any weather packets the latest 10 day(s).
| Time | Temp. | Humidity | Pressure | Rain* | Wind** | Luminosity | Snow |
|---|---|---|---|---|---|---|---|
| 1788298143 | 34.44° C | 62% | 1017.3 hPa | 0 mm | - | 272 W/m² | - |
| 1788297838 | 33.89° C | 64% | 1017.2 hPa | 0 mm | - | 297 W/m² | - |
| 1788297535 | 33.89° C | 71% | 1017.4 hPa | 0 mm | - | 315 W/m² | - |
| 1788297230 | 34.44° C | 68% | 1017.5 hPa | 0 mm | - | 337 W/m² | - |
| 1788296926 | 34.44° C | 64% | 1017.2 hPa | 0 mm | - | 354 W/m² | - |
| 1788296621 | 35° C | 65% | 1017.6 hPa | 0 mm | - | 357 W/m² | - |
| 1788296318 | 34.44° C | 71% | 1017.2 hPa | 0 mm | - | 366 W/m² | - |
| 1788296018 | 34.44° C | 67% | 1017.3 hPa | 0 mm | - | 367 W/m² | - |
| 1788295713 | 34.44° C | 69% | 1017.2 hPa | 0 mm | - | 367 W/m² | - |
| 1788295409 | 33.89° C | 63% | 1017.3 hPa | 0 mm | - | 394 W/m² | - |
| 1788295109 | 35° C | 69% | 1017.4 hPa | 0 mm | - | 411 W/m² | - |
| 1788294803 | 35° C | 63% | 1017.3 hPa | 0 mm | - | 395 W/m² | - |
| 1788294498 | 34.44° C | 66% | 1017.3 hPa | 0 mm | - | 398 W/m² | - |
| 1788294193 | 35° C | 62% | 1017.4 hPa | 0 mm | - | 446 W/m² | - |
| 1788293889 | 35.56° C | 66% | 1017.2 hPa | 0 mm | - | 475 W/m² | - |
| 1788293588 | 35.56° C | 63% | 1017.2 hPa | 0 mm | - | 480 W/m² | - |
| 1788293282 | 35.56° C | 63% | 1017.4 hPa | 0 mm | - | 463 W/m² | - |
| 1788292978 | 35.56° C | 61% | 1017.5 hPa | 0 mm | - | 473 W/m² | - |
| 1788292675 | 35° C | 63% | 1017.6 hPa | 0 mm | - | 504 W/m² | - |
| 1788292370 | 35° C | 68% | 1017.6 hPa | 0 mm | - | 514 W/m² | - |
| 1788292065 | 35.56° C | 65% | 1017.6 hPa | 0 mm | - | 518 W/m² | - |
| 1788291760 | 35.56° C | 66% | 1017.9 hPa | 0 mm | - | 523 W/m² | - |
| 1788291456 | 35.56° C | 64% | 1017.8 hPa | 0 mm | - | 541 W/m² | - |
| 1788291155 | 36.11° C | 60% | 1017.8 hPa | 0 mm | - | 561 W/m² | - |
| 1788290850 | 35.56° C | 62% | 1017.9 hPa | 0 mm | - | 549 W/m² | - |
* Rain latest hour (hover to see other rain measurements)
** Current wind speed in m/s (hover to see current wind gust speed)